Location: Unspecified
(0.0000°N, 0.0000°E)
Time: 22:48:06
(UTC+00:00)

NO-84 - Visible Passes

Search period start: 02 July 2020 00:00
Search period end: 12 July 2020 00:00
Orbit: 326 x 481 km, 55.0° (Epoch: 24 June)

Date Brightness Start Highest point End Pass type
(mag) Time Alt. Az. Time Alt. Az. Time Alt. Az.
04 Jul ? 19:06:51 10° S 19:06:53 10° S 19:06:53 10° S visible
05 Jul ? 19:49:58 10° WSW 19:53:09 33° WNW 19:56:27 10° N visible
06 Jul ? 18:57:23 10° SSW 19:00:48 77° ESE 19:04:23 10° NE visible
07 Jul ? 19:43:39 10° WNW 19:44:30 11° NW 19:45:20 10° NW visible
08 Jul ? 18:49:04 10° WSW 18:52:03 28° WNW 18:55:09 10° N visible
10 Jul ? 05:31:00 10° NNW 05:34:01 47° ENE 05:36:54 10° SE visible
11 Jul ? 04:39:38 10° NNE 04:41:35 15° ENE 04:43:30 10° E visible
